Regional Weather Roundup
Issued by NWS

Home | Current Version | Previous Version | Graphics & Text | Print | Product List | Glossary On
Versions: 1 2 3 4 5 6 7 8 9 10 11 12 13 14 15 16 17 18 19 20 21 22 23 24 25 26 27 28 29 30 31 32 33 34 35 36 37 38 39 40 41 42 43 44 45 46 47 48 49 50
000
ASUS45 KCYS 020010
RWRWY

WYOMING REGIONAL WEATHER ROUNDUP
NATIONAL WEATHER SERVICE CHEYENNE WY
600 PM MDT WED JUL 01 2015

NOTE:  "FAIR" INDICATES FEW OR NO CLOUDS BELOW 12,000 FEET
WITH NO SIGNIFICANT WEATHER AND/OR OBSTRUCTIONS TO VISIBILITY.

WYZ001-020100-
YELLOWSTONE NATIONAL PARK

CITY           SKY/WX    TMP DP  RH WIND       PRES   REMARKS
LK YELLOWSTONE   N/A     77  34  21 W9        30.31R
6HR MIN TEMP:  67; 6HR MAX TEMP:  80;

W YELLOWSTONE  NOT AVBL

$$
WYZ002>013-054>058-071-098>099-020100-
NORTHERN WYOMING

CITY           SKY/WX    TMP DP  RH WIND       PRES   REMARKS
JACKSON        FAIR      84  39  20 W10       30.18S
CODY           FAIR      81  54  39 N9        30.07S
GREYBULL       FAIR      93  46  19 NW22      29.93S
6HR MIN TEMP:  88; 6HR MAX TEMP:  97;

WORLAND        FAIR      91  53  27 NE5       29.94F
6HR MIN TEMP:  83; 6HR MAX TEMP:  95;

SHERIDAN       FAIR      88  52  29 W5        30.00F
6HR MIN TEMP:  84; 6HR MAX TEMP:  89;

BUFFALO        FAIR      83  52  34 N12       30.07F
6HR MIN TEMP:  80; 6HR MAX TEMP:  86;

GILLETTE       FAIR      82  55  39 E13       30.03S
6HR MIN TEMP:  82; 6HR MAX TEMP:  86;

HULETT         FAIR      81  52  36 N9        30.06S
NEWCASTLE      FAIR      82  46  28 MISG      30.03S

$$
WYZ014>020-022>026-101>103-020100-
CENTRAL WYOMING

CITY           SKY/WX    TMP DP  RH WIND       PRES   REMARKS
BIG PINEY      FAIR      86  37  17 NW16G22   30.22R
6HR MIN TEMP:  81; 6HR MAX TEMP:  89;

PINEDALE       FAIR      82  41  23 NW14G23   30.22S
DUBOIS         FAIR      82  27  13 NW16G23   30.20S
LANDER         FAIR      87  54  32 N6        30.05F
6HR MIN TEMP:  78; 6HR MAX TEMP:  92; 6HR PCP: TRACE;

RIVERTON       FAIR      89  46  22 N7        30.05F
6HR MIN TEMP:  80; 6HR MAX TEMP:  92; 6HR PCP: TRACE;

CASPER         FAIR      90  45  21 N9        30.04F
6HR MIN TEMP:  82; 6HR MAX TEMP:  92;

DOUGLAS        FAIR      87  51  28 E10       30.05S
6HR MIN TEMP:  83; 6HR MAX TEMP:  89;


$$
WYZ021-027>030-104>119-020100-
SOUTHERN WYOMING

CITY           SKY/WX    TMP DP  RH WIND       PRES   REMARKS
EVANSTON       FAIR      86  39  19 NW7       30.24F
6HR MIN TEMP:  81; 6HR MAX TEMP:  88;

KEMMERER       FAIR      82  36  18 NW20G25   30.25S
FORT BRIDGER   CLEAR     88  32  13 NW16G24   30.25S
ROCK SPRINGS   FAIR      88  41  19 W14G23    30.15F
6HR MIN TEMP:  80; 6HR MAX TEMP:  89;

DIXON          TSTM      69  50  49 N14G29    30.23R
RAWLINS          N/A     65  55  70 SE9       30.21F
SARATOGA       TSTM      61  52  72 N15G29    30.30R
LARAMIE        FAIR      75  49  39 S9        30.23F
6HR MIN TEMP:  71; 6HR MAX TEMP:  83;

CHEYENNE       CLOUDY    74  54  49 CALM      30.20R
6HR MIN TEMP:  72; 6HR MAX TEMP:  84; 6HR PCP:  0.03;

TORRINGTON     FAIR      87  54  32 S5        29.98F
6HR MIN TEMP:  87; 6HR MAX TEMP:  93;

PINE BLUFFS    FAIR      81  52  36 SW17      30.10R

$$



USA.gov is the U.S. government's official web portal to all federal, state and local government web resources and services.